SHIJIAN-30C (SJ-30C)

Last updated on Fri Dec 19 2025 00:02:05 GMT+0000 (Coordinated Universal Time)

1 66547U 25266C 25352.75952653 .00009467 00000+0 50845-3 0 9998 2 66547 51.7991 304.6791 0011615 12.7012 347.4255 15.15504340 4494
UTC large
Height (km)
Speed (km/s)
/
Latitude / Longitude
Inclination (degrees)
Orbital Period (minutes)
Azimuth
Elevation
Range (km)
Doppler Factor

Next 0 passes for location: London (51.5072 / 0.1276)

Sorry there are no passes over London.